Weather History for Hastings, NE

Change the Weather History Date:

Saturday, July 27, 2013

  Actual Average Record
Temperature  
Mean Temperature 64 °F 77 °F  
Max Temperature 72 °F 88 °F 109 °F (1936)
Min Temperature 56 °F 67 °F 50 °F (2005)
Degree Days  
Heating Degree Days 1 0  
Month to date heating degree days 1 0  
Since 1 June heating degree days 28 21  
Since 1 July heating degree days 1 0  
Cooling Degree Days 0 12  
Month to date cooling degree days 321 327  
Year to date cooling degree days 631 611  
Since 1 June cooling degree days 557 552  
Growing Degree Days 14 (Base 50)    
Moisture  
Dew Point 52 °F    
Average Humidity 65    
Maximum Humidity 86    
Minimum Humidity 44    
Precipitation  
Precipitation 0.13 in 0.10 in 2.53 in (1993)
Month to date precipitation 1.10 3.31  
Year to date precipitation 14.14 16.93  
Snow  
Snow 0.00 in 0.00 in - ()
Month to date snowfall 0.0 0.0  
Since 1 June snowfall 0.0 0.0  
Since 1 July snowfall 0.0 0.0  
Snow Depth 0.00 in    
Sea Level Pressure  
Sea Level Pressure 30.12 in    
Wind  
Wind Speed 3 mph (NE)    
Max Wind Speed 10 mph    
Max Gust Speed 12 mph    
Visibility 10 miles    
Events Rain , Thunderstorm    
T = Trace of Precipitation, MM = Missing Value Source: NWS Daily Summary

Daily Weather History Graph

Daily Weather History Graph

Search for Another Location

Airport:

Trip Planner

Search our weather history database for the weather conditions in past years. The results will help you decide how hot, cold, wet, or windy it might be!

Date:

Astronomy

Jul. 27, 2013 Rise Set
Actual Time 6:26 AM CDT 8:53 PM CDT
Civil Twilight 5:55 AM CDT 9:24 PM CDT
Nautical Twilight 5:16 AM CDT 10:03 PM CDT
Astronomical Twilight 4:33 AM CDT 10:45 PM CDT
Moon 11:39 PM CDT (7/27) 12:10 PM CDT (7/27)
Length of Visible Light 15h 29m
Length of Day
14h 27m
Waning Gibbous, 70% of the Moon is Illuminated
Jul 27
Waning Gibbous
Jul 29
Last Quarter
Aug 6
New
Aug 14
First Quarter
Aug 20
Full

Hourly Weather History & Observations

Time (CDT) Temp. Dew Point Humidity Pressure Visibility Wind Dir Wind Speed Gust Speed Precip Events Conditions
12:53 AM 59.0 °F 52.0 °F 78% 30.13 in 10.0 mi ENE 4.6 mph - N/A   Clear
1:53 AM 57.0 °F 51.1 °F 81% 30.14 in 10.0 mi ENE 3.5 mph - N/A   Clear
2:53 AM 57.0 °F 52.0 °F 83% 30.13 in 10.0 mi NNE 5.8 mph - N/A   Mostly Cloudy
3:53 AM 57.0 °F 51.1 °F 81% 30.12 in 10.0 mi NE 4.6 mph - N/A   Mostly Cloudy
4:16 AM 57.2 °F 51.8 °F 82% 30.20 in 10.0 mi NW 10.4 mph - 0.00 in Rain , Thunderstorm Light Thunderstorms and Rain
4:53 AM 57.0 °F 53.1 °F 87% 30.14 in 10.0 mi Calm Calm - 0.08 in Rain Light Rain
5:48 AM 57.2 °F 55.4 °F 94% 30.18 in 10.0 mi West 4.6 mph - N/A Thunderstorm Overcast
5:53 AM 57.0 °F 54.0 °F 89% 30.16 in 10.0 mi West 5.8 mph - N/A Thunderstorm Overcast
6:14 AM 57.2 °F 53.6 °F 88% 30.17 in 10.0 mi WSW 3.5 mph - 0.00 in Rain Light Rain
6:53 AM 57.0 °F 54.0 °F 89% 30.15 in 10.0 mi Calm Calm - 0.01 in Rain Light Rain
7:53 AM 57.9 °F 55.0 °F 90% 30.15 in 10.0 mi North 3.5 mph - 0.02 in   Overcast
8:53 AM 57.9 °F 53.1 °F 84% 30.16 in 10.0 mi ENE 4.6 mph - 0.02 in   Overcast
9:53 AM 57.9 °F 53.1 °F 84% 30.15 in 10.0 mi East 6.9 mph - 0.00 in   Overcast
10:53 AM 61.0 °F 53.1 °F 75% 30.16 in 10.0 mi Calm Calm - N/A   Overcast
11:53 AM 62.1 °F 51.1 °F 67% 30.15 in 10.0 mi Calm Calm - N/A   Overcast
12:53 PM 64.9 °F 48.0 °F 54% 30.14 in 10.0 mi East 5.8 mph - N/A   Overcast
1:53 PM 66.9 °F 50.0 °F 54% 30.13 in 10.0 mi Variable 3.5 mph - N/A   Overcast
2:53 PM 68.0 °F 48.9 °F 50% 30.10 in 10.0 mi ENE 5.8 mph - N/A   Overcast
3:53 PM 70.0 °F 50.0 °F 49% 30.08 in 10.0 mi ENE 5.8 mph - N/A   Mostly Cloudy
4:53 PM 69.1 °F 48.0 °F 47% 30.08 in 10.0 mi Calm Calm - N/A   Mostly Cloudy
5:53 PM 71.1 °F 50.0 °F 47% 30.04 in 10.0 mi NNW 4.6 mph - N/A   Scattered Clouds
6:53 PM 71.1 °F 48.0 °F 44% 30.04 in 10.0 mi NNE 3.5 mph - N/A   Clear
7:53 PM 68.0 °F 51.1 °F 55% 30.04 in 10.0 mi NE 3.5 mph - N/A   Clear
8:53 PM 66.0 °F 52.0 °F 60% 30.03 in 10.0 mi Calm Calm - N/A   Clear
9:53 PM 63.0 °F 55.0 °F 75% 30.06 in 10.0 mi South 3.5 mph - N/A   Clear
10:53 PM 60.1 °F 54.0 °F 80% 30.06 in 10.0 mi Calm Calm - N/A   Clear
11:53 PM 59.0 °F 54.0 °F 83% 30.06 in 10.0 mi Calm Calm - N/A   Clear